Location: Asheville, NC
(35.6000°N, 82.5500°W)
Time: 01:56:54
(UTC-04:00)

LilacSat-2 - Pass Details

Date: 10 January 2018
Orbit: 515 x 535 km, 97.5° (Epoch: 20 July)

Event Time Altitude Azimuth Distance (km) Brightness Sun altitude
Rises 18:47:58 0° 206° (SSW) 2,667 ? -14.5°
Reaches altitude 10° 18:50:50 10° 230° (SW) 1,783 ? -15.0°
Maximum altitude 18:53:05 15° 266° (W) 1,494 ? -15.5°
Drops below altitude 10° 18:55:21 10° 303° (WNW) 1,791 ? -15.9°
Sets 18:58:16 0° 327° (NNW) 2,686 ? -16.5°
